Location: Huesca
(42.1318°N, 0.4078°W)
Time: 00:45:13
(UTC+02:00)

RS-15 - Visible Passes

Search period start: 25 April 2024 00:00
Search period end: 05 May 2024 00:00
Orbit: 1895 x 2149 km, 64.8° (Epoch: 23 April)

Date Brightness Start Highest point End Pass type
(mag) Time Alt. Az. Time Alt. Az. Time Alt. Az.
25 Apr 9.9 02:06:22 10° NW 02:14:51 22° N 02:23:06 10° NE visible
25 Apr 9.5 04:22:07 10° NNW 04:32:02 33° NNE 04:41:38 10° E visible
25 Apr 8.0 06:34:48 10° NW 06:45:59 89° WSW 06:56:53 10° SSE visible
25 Apr 8.9 23:10:10 10° WSW 23:21:32 48° NW 23:32:30 10° NNE visible
26 Apr 9.9 01:28:59 10° WNW 01:37:45 23° N 01:46:14 10° NE visible
26 Apr 9.6 03:45:48 10° NNW 03:55:14 29° NNE 04:04:22 10° E visible
26 Apr 8.2 05:58:42 10° NNW 06:09:53 75° NE 06:20:47 10° SE visible
26 Apr 8.7 22:33:24 10° SW 22:45:09 59° NW 22:56:26 10° NNE visible
27 Apr 9.8 00:51:31 10° WNW 01:00:42 26° NNW 01:09:36 10° NE visible
27 Apr 9.8 03:09:20 10° NW 03:18:19 26° NNE 03:27:01 10° ENE visible
27 Apr 8.5 05:22:38 10° NNW 05:33:41 60° NE 05:44:24 10° SE visible
27 Apr 8.4 21:56:54 10° SW 22:08:53 71° NW 22:20:23 10° NNE visible
28 Apr 9.7 00:14:01 10° W 00:23:45 29° NNW 00:33:10 10° NNE visible
28 Apr 9.9 02:32:40 10° NW 02:41:17 23° N 02:49:40 10° ENE visible
28 Apr 8.8 04:46:32 10° NNW 04:57:19 49° NE 05:07:47 10° ESE visible
28 Apr 8.2 21:20:40 10° SSW 21:32:45 87° WNW 21:44:18 10° NNE visible
28 Apr 9.5 23:36:38 10° W 23:46:55 33° NNW 23:56:52 10° NNE visible
29 Apr 9.9 01:55:46 10° NW 02:04:12 22° N 02:12:24 10° NE visible
29 Apr 9.1 04:10:25 10° NNW 04:20:50 41° NE 04:30:55 10° ESE visible
29 Apr 7.9 06:23:02 10° NW 06:33:59 69° WSW 06:44:44 10° SSE visible
29 Apr 9.3 22:59:24 10° WSW 23:10:14 39° NW 23:20:41 10° NNE visible
30 Apr 9.9 01:18:37 10° NW 01:27:04 22° N 01:35:17 10° NE visible
30 Apr 9.4 03:34:13 10° NNW 03:44:12 34° NNE 03:53:51 10° E visible
30 Apr 7.9 05:46:53 10° NW 05:58:02 86° WSW 06:08:56 10° SSE visible
30 Apr 9.1 22:22:22 10° WSW 22:33:41 47° NW 22:44:34 10° NNE visible
01 May 9.9 00:41:17 10° WNW 00:49:57 23° N 00:58:24 10° NE visible
01 May 9.6 02:57:56 10° NNW 03:07:26 29° NNE 03:16:37 10° E visible
01 May 8.1 05:10:47 10° NNW 05:21:58 77° NE 05:32:52 10° SE visible
01 May 8.8 21:45:34 10° SW 21:57:16 57° NW 22:08:29 10° NNE visible
02 May 9.9 00:03:48 10° WNW 00:12:54 25° NNW 00:21:44 10° NE visible
02 May 9.7 02:21:29 10° NW 02:30:31 26° NNE 02:39:16 10° ENE visible
02 May 8.4 04:34:42 10° NNW 04:45:46 62° NE 04:56:31 10° SE visible
02 May 8.6 21:09:01 10° SW 21:20:59 69° NW 21:32:26 10° NNE visible
02 May 9.8 23:26:19 10° W 23:35:56 28° NNW 23:45:16 10° NNE visible
03 May 9.8 01:44:51 10° NW 01:53:30 24° NNE 02:01:54 10° ENE visible
03 May 8.7 03:58:37 10° NNW 04:09:26 51° NE 04:19:56 10° ESE visible
03 May 8.0 06:11:22 10° NW 06:21:50 52° WSW 06:32:10 10° S visible
03 May 9.7 22:48:55 10° W 22:59:06 32° NNW 23:08:57 10° NNE visible
04 May 9.9 01:07:59 10° NW 01:16:25 22° N 01:24:37 10° NE visible
04 May 9.0 03:22:30 10° NNW 03:32:57 42° NE 03:43:06 10° ESE visible
04 May 7.9 05:35:07 10° NW 05:46:01 67° WSW 05:56:43 10° SSE visible
04 May 9.5 22:11:38 10° WSW 22:22:23 38° NW 22:32:46 10° NNE visible
